DW7854 Weather Reports


time (UTC)temp
C
wind
direction
speed
KPH
gust
KPH
rain 1hr
cm
rain 24hr
cm
rain mn
cm
humidity
%
barometer
mb
20260510203238 21 341 3.2 8.0 0.03 0.56 0.56 89 1016.4
20260510203109 20 355 4.8 9.7 0.03 0.56 0.56 89 1016.5
20260510202338 21 335 3.2 8.0 0.05 0.56 0.56 90 1016.3
20260510201510 21 342 1.6 8.0 0.05 0.56 0.56 89 1016.5
20260510201438 21 325 1.6 8.0 0.05 0.56 0.56 89 1016.5
20260510200538 21 323 3.2 8.0 0.05 0.56 0.56 89 1016.9
20260510200013 21 313 3.2 8.0 0.08 0.56 0.56 89 1016.5
20260510195638 21 13 1.6 6.4 0.08 0.56 0.56 89 1016.2
20260510194503 21 200 1.6 8.0 0.05 0.53 0.53 88 1016.7
20260510193838 21 347 1.6 8.0 0.05 0.53 0.53 89 1016.3
20260510193007 21 335 1.6 9.7 0.05 0.53 0.53 87 1016.0
20260510192938 22 29 3.2 9.7 0.03 0.51 0.53 87 1015.9
20260510192038 22 22 3.2 9.7 0.03 0.51 0.51 86 1016.2
20260510191606 22 53 1.6 12.9 0.03 0.51 0.51 86 1016.3
20260510191138 22 332 4.8 12.9 0.03 0.51 0.51 85 1016.4
20260510190104 22 309 4.8 14.5 0.00 0.48 0.48 83 1016.7
20260510185338 23 320 6.4 14.5 0.00 0.48 0.48 82 1016.6
20260510184605 23 339 3.2 9.7 0.00 0.48 0.48 82 1016.8
20260510184438 23 313 4.8 11.3 0.00 0.48 0.48 82 1016.8
20260510183538 24 312 4.8 9.7 0.00 0.48 0.48 81 1016.4
20260510183106 23 301 3.2 8.0 0.00 0.48 0.48 80 1016.2
20260510182638 24 309 3.2 6.4 0.00 0.48 0.48 80 1016.1
20260510181738 24 321 4.8 9.7 0.00 0.48 0.48 80 1015.9
20260510181604 24 307 3.2 11.3 0.00 0.48 0.48 80 1016.0
20260510180007 25 340 4.8 9.7 0.00 0.48 0.48 79 1015.8
20260510175038 25 319 3.2 8.0 0.00 0.48 0.48 79 1015.8
20260510174506 25 327 1.6 8.0 0.00 0.48 0.48 79 1015.7
20260510174138 25 294 1.6 6.4 0.00 0.48 0.48 81 1015.8
20260510173238 25 310 3.2 9.7 0.00 0.48 0.48 80 1015.8
20260510173002 25 325 3.2 9.7 0.00 0.48 0.48 80 1015.7
20260510172338 25 239 1.6 8.0 0.00 0.48 0.48 80 1015.6
20260510171511 25 174 1.6 8.0 0.00 0.48 0.48 80 1015.5
20260510171438 25 306 1.6 6.4 0.00 0.48 0.48 81 1015.5
20260510170005 24 157 3.2 8.0 0.00 0.48 0.48 82 1015.0
20260510165638 24 219 3.2 8.0 0.00 0.48 0.48 82 1015.0
20260510164737 24 205 3.2 6.4 0.00 0.48 0.48 84 1015.0
20260510164603 23 263 1.6 8.0 0.00 0.48 0.48 85 1015.0
20260510163838 23 205 1.6 6.4 0.00 0.48 0.48 84 1014.6
20260510163105 23 196 0.0 4.8 0.00 0.48 0.48 84 1014.3
20260510162938 23 163 1.6 4.8 0.00 0.48 0.48 84 1014.2
20260510162037 23 97 0.0 3.2 0.00 0.48 0.48 83 1013.7
20260510161503 22 55 0.0 3.2 0.00 0.48 0.48 84 1013.5
20260510161137 23 93 1.6 4.8 0.00 0.48 0.48 84 1013.3
20260510160237 22 80 3.2 8.0 0.00 0.48 0.48 85 1013.0
20260510160007 22 99 0.0 6.4 0.00 0.48 0.48 86 1012.8
20260510155338 22 136 1.6 4.8 0.00 0.48 0.48 84 1012.5
20260510154502 22 170 1.6 6.4 0.00 0.48 0.48 87 1012.7
20260510154438 22 171 1.6 6.4 0.00 0.48 0.48 87 1012.7
20260510153538 22 257 1.6 3.2 0.00 0.48 0.48 88 1012.7
20260510153007 22 261 0.0 8.0 0.00 0.48 0.48 88 1012.4
20260510151737 22 98 4.8 12.9 0.00 0.48 0.48 87 1011.9
20260510151504 21 107 4.8 12.9 0.00 0.48 0.48 89 1011.9
20260510150838 22 95 4.8 12.9 0.00 0.48 0.48 90 1012.1
20260510145937 21 107 6.4 12.9 0.00 0.48 0.48 94 1012.4
20260510145038 21 97 6.4 14.5 0.00 0.48 0.48 96 1012.6
20260510144602 20 35 3.2 14.5 0.00 0.48 0.48 96 1012.6
20260510144137 20 97 6.4 14.5 0.00 0.48 0.48 96 1012.6
20260510143238 20 93 4.8 11.3 0.00 0.48 0.48 96 1012.7
20260510143103 20 88 4.8 12.9 0.00 0.48 0.48 96 1012.7
20260510142338 20 113 4.8 8.0 0.00 0.48 0.48 96 1013.1
20260510141507 20 122 3.2 11.3 0.00 0.48 0.48 96 1013.2
20260510141437 20 103 4.8 11.3 0.00 0.48 0.48 96 1013.2
20260510140537 20 102 4.8 12.9 0.00 0.48 0.48 97 1013.2
20260510140003 20 80 1.6 12.9 0.00 0.48 0.48 97 1013.3
20260510135638 20 92 3.2 12.9 0.00 0.48 0.48 97 1013.5
20260510134509 19 84 1.6 4.8 0.00 0.48 0.48 97 1013.6
20260510133838 20 76 1.6 11.3 0.00 0.48 0.48 97 1013.6
20260510133003 19 82 3.2 11.3 0.00 0.48 0.48 96 1013.2
20260510132937 20 78 3.2 11.3 0.00 0.48 0.48 96 1013.3
20260510132037 19 50 1.6 4.8 0.00 0.48 0.48 97 1013.1
20260510131604 19 20 1.6 8.0 0.00 0.48 0.48 97 1013.2
20260510131137 19 64 1.6 8.0 0.00 0.48 0.48 97 1013.2
20260510130237 19 59 1.6 8.0 0.00 0.48 0.48 96 1013.5
20260510130008 19 63 1.6 8.0 0.00 0.48 0.48 96 1013.5
20260510124502 18 321 3.2 9.7 0.00 0.48 0.48 96 1013.4
20260510124437 19 62 1.6 9.7 0.00 0.48 0.48 96 1013.4
20260510123537 19 34 1.6 6.4 0.00 0.48 0.48 96 1013.4
20260510123117 18 36 1.6 6.4 0.00 0.48 0.48 96 1013.5
20260510122637 19 1 1.6 3.2 0.00 0.48 0.48 96 1013.4
20260510121737 19 28 1.6 8.0 0.03 0.48 0.48 96 1013.4
20260510121606 18 360 0.0 6.4 0.03 0.48 0.48 96 1013.3
20260510120837 19 37 1.6 8.0 0.03 0.48 0.48 96 1013.4
20260510120103 18 303 0.0 3.2 0.03 0.48 0.48 96 1013.3
20260510115937 19 5 0.0 3.2 0.03 0.48 0.48 96 1013.3
20260510115038 19 336 0.0 3.2 0.05 0.48 0.48 96 1013.3
20260510114503 18 38 0.0 11.3 0.05 0.48 0.48 96 1013.2
20260510113237 19 14 4.8 11.3 0.08 0.48 0.48 96 1013.2
20260510113106 18 333 4.8 9.7 0.08 0.48 0.48 96 1013.0
20260510112337 19 59 1.6 4.8 0.10 0.46 0.48 96 1012.8
20260510111604 19 311 0.0 3.2 0.18 0.46 0.46 96 1013.3
20260510110538 19 243 3.2 6.4 0.30 0.46 0.46 96 1013.1
20260510110009 19 199 1.6 14.5 0.33 0.46 0.46 96 1013.1
20260510105637 19 174 9.7 16.1 0.38 0.46 0.46 96 1012.7
20260510104737 19 152 9.7 17.7 0.38 0.43 0.43 96 1012.3
20260510104606 19 155 11.3 17.7 0.38 0.43 0.43 96 1012.4
20260510103837 19 176 6.4 12.9 0.38 0.41 0.43 96 1013.4
20260510103110 18 178 6.4 11.3 0.38 0.41 0.41 96 1013.5
20260510102937 19 174 3.2 8.0 0.36 0.38 0.38 96 1013.5
20260510102037 19 185 1.6 4.8 0.33 0.33 0.33 96 1013.6
20260510101505 18 175 1.6 4.8 0.28 0.28 0.28 96 1013.6
20260510101137 19 214 1.6 4.8 0.23 0.23 0.23 96 1013.6
20260510100237 19 0 0.0 0.0 0.13 0.13 0.13 96 1013.4
20260510100105 19 288 0.0 0.0 0.13 0.13 0.13 96 1013.5
20260510095337 19 0 0.0 0.0 0.08 0.08 0.08 96 1013.3
20260510094509 18 158 0.0 0.0 0.05 0.05 0.05 95 1013.1
20260510094437 19 0 0.0 0.0 0.05 0.05 0.05 95 1013.1
20260510093537 19 0 0.0 0.0 0.03 0.03 0.03 95 1012.8
20260510093005 18 158 0.0 0.0 0.03 0.03 0.03 95 1013.1
20260510092637 19 0 0.0 0.0 0.00 0.00 0.00 95 1013.2
20260510091737 19 0 0.0 0.0 0.00 0.00 0.00 95 1013.4
20260510091506 18 286 0.0 0.0 0.00 0.00 0.00 96 1013.4
20260510090837 19 0 0.0 0.0 0.00 0.00 0.00 95 1013.3
20260510090006 18 29 0.0 0.0 0.00 0.00 0.00 95 1012.8
20260510085937 18 0 0.0 0.0 0.00 0.00 0.00 95 1012.8
20260510085037 18 0 0.0 0.0 0.00 0.00 0.00 95 1013.0
20260510084503 18 29 0.0 0.0 0.00 0.00 0.00 95 1013.0
20260510084137 18 0 0.0 0.0 0.00 0.00 0.00 95 1012.8
20260510083237 18 0 0.0 0.0 0.00 0.00 0.00 95 1012.5
20260510083004 18 29 0.0 0.0 0.00 0.00 0.00 94 1012.5
20260510081510 18 29 0.0 0.0 0.00 0.00 0.00 94 1011.8
20260510081437 19 0 0.0 0.0 0.00 0.00 0.00 94 1011.7
20260510080537 19 0 0.0 0.0 0.00 0.00 0.00 94 1011.8
20260510080107 18 360 0.0 4.8 0.00 0.00 0.00 94 1011.8
20260510075637 19 1 1.6 3.2 0.00 0.00 0.00 94 1011.9
20260510074737 19 335 0.0 4.8 0.00 0.00 0.00 94 1011.9
20260510074606 18 344 1.6 4.8 0.00 0.00 0.00 94 1011.9
20260510073117 19 94 0.0 0.0 0.00 0.00 0.00 94 1011.6
20260510072937 19 0 0.0 0.0 0.00 0.00 0.00 94 1011.5
20260510072037 19 0 0.0 0.0 0.00 0.00 0.00 94 1011.4
20260510071602 19 94 0.0 0.0 0.00 0.00 0.00 94 1011.4
20260510071137 20 0 0.0 0.0 0.00 0.00 0.00 94 1011.5
20260510070104 19 94 0.0 0.0 0.00 0.00 0.00 93 1011.5
20260510065337 20 0 0.0 0.0 0.00 0.00 0.00 93 1011.3
20260510064603 20 94 0.0 0.0 0.00 0.00 0.00 93 1011.3
20260510064437 20 0 0.0 0.0 0.00 0.00 0.00 93 1011.4
20260510063537 20 0 0.0 0.0 0.00 0.00 0.00 93 1011.3
20260510063107 20 94 0.0 0.0 0.00 0.00 0.00 93 1011.0
20260510062637 20 0 0.0 0.0 0.00 0.00 0.00 93 1011.1
20260510061737 20 0 0.0 0.0 0.00 0.00 0.00 93 1011.3
20260510061606 20 94 0.0 0.0 0.00 0.00 0.00 93 1011.3
20260510060837 20 0 0.0 0.0 0.00 0.00 0.00 93 1011.5
20260510060006 20 94 0.0 0.0 0.00 0.00 0.00 93 1011.6
20260510055937 20 0 0.0 0.0 0.00 0.00 0.00 93 1011.6
20260510055037 20 104 1.6 4.8 0.00 0.00 0.00 93 1011.3
20260510054506 20 90 1.6 3.2 0.00 0.00 0.00 93 1011.4
20260510054137 21 141 0.0 3.2 0.00 0.00 0.00 92 1011.3
20260510053237 21 164 1.6 4.8 0.00 0.00 0.00 92 1011.3
20260510053003 20 175 0.0 4.8 0.00 0.00 0.00 92 1011.3
20260510051517 20 157 3.2 8.0 0.00 0.00 0.00 92 1011.1
20260510051437 21 149 4.8 8.0 0.00 0.00 0.00 92 1011.1
20260510050537 21 139 3.2 12.9 0.00 0.00 0.00 92 1011.1
20260510050003 21 183 3.2 12.9 0.00 0.00 0.00 92 1011.0
20260510045637 21 133 4.8 11.3 0.00 0.00 0.00 92 1010.9
20260510044607 21 132 3.2 11.3 0.00 0.00 0.00 92 1010.8
20260510043837 21 144 6.4 12.9 0.00 0.00 0.00 92 1010.7
20260510043017 21 157 4.8 11.3 0.00 0.00 0.00 91 1010.4
20260510042937 21 143 6.4 11.3 0.00 0.00 0.00 92 1010.4
20260510042037 21 150 4.8 9.7 0.00 0.00 0.00 91 1010.5
20260510041637 21 176 3.2 12.9 0.00 0.00 0.00 91 1010.5
20260510041137 21 145 6.4 12.9 0.00 0.00 0.00 91 1010.4
20260510040237 21 143 6.4 14.5 0.00 0.00 0.00 91 1010.4
20260510040009 21 149 4.8 14.5 0.00 0.00 0.00 91 1010.4
20260510035337 21 146 8.0 14.5 0.00 0.00 0.00 91 1010.3
20260510034502 21 165 4.8 12.9 0.00 0.00 0.00 90 1010.4
20260510033537 22 141 9.7 16.1 0.00 0.00 0.00 89 1010.3
20260510033002 21 168 9.7 16.1 0.00 0.00 0.00 89 1010.2
20260510032637 22 145 9.7 17.7 0.00 0.00 0.00 89 1010.2
20260510031737 22 140 11.3 24.1 0.00 0.00 0.00 88 1010.2
20260510031505 22 92 14.5 24.1 0.00 0.00 0.00 88 1010.2
20260510030011 22 164 6.4 16.1 0.00 0.00 0.00 86 1010.0
20260510025937 22 142 8.0 14.5 0.00 0.00 0.00 86 1009.9
20260510025037 22 138 6.4 17.7 0.00 0.00 0.00 84 1009.8
20260510024504 22 138 4.8 19.3 0.00 0.00 0.00 83 1009.8
20260510024137 23 142 8.0 19.3 0.00 0.00 0.00 82 1009.7
20260510023102 23 156 4.8 12.9 0.00 0.00 0.00 79 1009.6
20260510022337 23 142 6.4 14.5 0.00 0.00 0.00 78 1009.5
20260510021507 23 153 4.8 16.1 0.00 0.00 0.00 77 1009.4
20260510021437 23 133 8.0 16.1 0.00 0.00 0.00 77 1009.4
20260510020537 24 126 8.0 19.3 0.00 0.00 0.00 77 1009.2
20260510020112 24 143 3.2 12.9 0.00 0.00 0.00 80 1009.1
20260510014510 25 135 4.8 19.3 0.00 0.00 0.00 80 1008.8
20260510013002 25 140 8.0 12.9 0.00 0.00 0.00 78 1008.6
20260510012937 25 129 4.8 12.9 0.00 0.00 0.00 77 1008.7
20260510012037 25 128 3.2 8.0 0.00 0.00 0.00 76 1008.4
20260510011508 25 135 1.6 8.0 0.00 0.00 0.00 75 1008.4
20260510011137 26 137 3.2 8.0 0.00 0.00 0.00 75 1008.4
20260510010237 26 115 3.2 6.4 0.00 0.00 0.00 73 1008.3
20260510010007 26 150 3.2 6.4 0.00 0.00 0.00 73 1008.3
20260510005337 26 107 0.0 4.8 0.00 0.00 0.00 71 1008.2
20260510004503 26 69 0.0 1.6 0.00 0.00 0.00 70 1008.1
20260510004437 27 69 0.0 1.6 0.00 0.00 0.00 70 1008.1
20260510003537 27 115 0.0 3.2 0.00 0.00 0.00 69 1007.9
20260510003103 27 115 0.0 3.2 0.00 0.00 0.00 68 1008.0
20260510001737 27 141 1.6 4.8 0.00 0.00 0.00 68 1007.7
20260510001602 27 151 1.6 4.8 0.00 0.00 0.00 66 1007.8
20260510000837 27 114 1.6 4.8 0.00 0.00 0.00 64 1007.6
20260510000013 28 113 0.0 4.8 0.00 0.00 0.00 65 1007.7
20260509235037 28 166 3.2 6.4 0.00 0.00 0.00 64 1007.6
20260509234507 28 150 1.6 6.4 0.00 0.00 0.00 64 1007.6
20260509234137 28 157 4.8 8.0 0.00 0.00 0.00 63 1007.5
20260509233237 29 143 4.8 8.0 0.00 0.00 0.00 63 1007.6
20260509233107 28 136 3.2 8.0 0.00 0.00 0.00 62 1007.6
20260509232337 29 163 4.8 9.7 0.00 0.00 0.00 61 1007.4
20260509231610 29 177 1.6 8.0 0.00 0.00 0.00 61 1007.5
20260509230537 30 177 3.2 8.0 0.00 0.00 0.00 58 1007.5
20260509230103 29 182 3.2 6.4 0.00 0.00 0.00 60 1007.5
20260509225637 30 172 4.8 9.7 0.00 0.00 0.00 60 1007.5
20260509224737 30 159 4.8 8.0 0.00 0.00 0.00 60 1007.4
20260509224504 29 171 4.8 9.7 0.00 0.00 0.00 61 1007.4
20260509223837 30 129 4.8 8.0 0.00 0.00 0.00 59 1007.4
20260509223005 29 154 3.2 9.7 0.00 0.00 0.00 61 1007.3
20260509222036 30 154 3.2 8.0 0.00 0.00 0.00 60 1007.3
20260509221507 29 180 3.2 8.0 0.00 0.00 0.00 61 1007.3
20260509221137 30 148 4.8 8.0 0.00 0.00 0.00 62 1007.4
20260509220237 30 129 3.2 8.0 0.00 0.00 0.00 61 1007.4
20260509220107 29 174 3.2 9.7 0.00 0.00 0.00 61 1007.3
20260509215337 30 153 4.8 9.7 0.00 0.00 0.00 59 1007.4
20260509214504 30 105 6.4 11.3 0.00 0.00 0.00 59 1007.3
20260509214437 30 182 6.4 11.3 0.00 0.00 0.00 61 1007.3
20260509213537 30 159 3.2 8.0 0.00 0.00 0.00 62 1007.3
20260509213104 29 174 3.2 8.0 0.00 0.00 0.00 63 1007.5
20260509212636 29 154 6.4 11.3 0.00 0.00 0.00 63 1007.4
20260509211511 28 181 4.8 11.3 0.00 0.00 0.00 66 1007.6
20260509210837 28 157 3.2 9.7 0.00 0.00 0.00 65 1007.7
20260509210109 28 85 0.0 4.8 0.00 0.00 0.00 63 1007.9
20260509205937 28 86 1.6 4.8 0.00 0.00 0.00 64 1007.8
20260509205037 28 114 3.2 11.3 0.00 0.00 0.00 65 1008.0
20260509204512 28 277 1.6 11.3 0.00 0.00 0.00 62 1008.1
20260509204136 29 62 1.6 11.3 0.00 0.00 0.00 62 1008.1